[[{"header":{"parameterUnit":"m.s-1","parameterCategory":1,"la1":30.2991,"la2":30.254,"lo1":-89.0895,"lo2":-89.0444,"dy":0.0017,"dx":0.0017,"nx":28,"ny":28,"refTime":"2024-03-30T09:00:00:Z","depth":0,"parameterNumber":2,"parameterNumberName":"U-component_of_WINDS"},"data":[0,0,0,0,0,0,0,0,0,0,0,0,0,0,0,0,0,0,0,0,0,0,0,0,0,0,0,0,0,0,0,0,0,0,0,0,0,0,0,0,0,0,0,0,0,0,0,0,0,0,0,0,0,0,0,0,0,0,-1.6459,-1.6458,0,-1.6348,-1.6346,-1.6345,-1.6264,-1.6263,-1.6262,-1.6262,-1.6144,-1.6141,-1.6139,0,0,0,0,0,0,0,0,0,0,0,0,0,-1.66,-1.6598,-1.6459,-1.6458,-1.6456,-1.6348,-1.6346,-1.6345,-1.6264,-1.6263,-1.6262,-1.6262,-1.6145,-1.6142,-1.6139,0,0,0,0,0,0,0,0,0,0,0,0,0,-1.6519,-1.6597,-1.6459,-1.6403,-1.6397,-1.6348,-1.6346,-1.6344,-1.6264,-1.6263,-1.6262,-1.6261,-1.6146,-1.6142,-1.6138,-1.6135,0,0,-1.6127,-1.6125,0,0,0,0,0,0,0,0,-1.6523,-1.6514,-1.6413,-1.6407,-1.64,-1.6319,-1.6352,-1.6274,-1.6264,-1.6314,-1.6262,-1.6261,-1.6202,-1.6194,-1.6175,-1.613,-1.6125,-1.6126,-1.6124,-1.6122,-1.6121,0,0,0,0,0,0,0,-1.6529,-1.6518,-1.6415,-1.6411,-1.6404,-1.6383,-1.637,-1.6337,-1.6265,-1.631,-1.6304,-1.6292,-1.6199,-1.6179,-1.6172,-1.6123,-1.6126,-1.6123,-1.6121,-1.6119,-1.607,-1.6071,0,0,0,0,0,0,-1.6544,-1.6523,-1.6418,-1.6412,-1.6461,-1.6381,-1.6367,-1.6346,-1.6266,-1.6252,-1.6293,-1.6289,-1.6186,-1.6176,-1.6167,-1.6158,-1.6122,-1.6119,-1.6117,-1.6069,-1.607,-1.6071,0,0,0,0,0,0,-1.6547,-1.6535,-1.6423,-1.6466,-1.645,-1.638,-1.6357,-1.6344,-1.6324,-1.6253,-1.6239,-1.6286,-1.6185,-1.6173,-1.6144,-1.6153,-1.6117,-1.6114,-1.6068,-1.6069,-1.6071,-1.6141,0,0,0,0,0,0,-1.6552,-1.6537,-1.6536,-1.6466,-1.6448,-1.6402,-1.6357,-1.6343,-1.6318,-1.6312,-1.6243,-1.623,-1.6183,-1.615,-1.6141,-1.6147,-1.6111,-1.6067,-1.6069,-1.607,-1.6137,-1.6144,-1.615,0,0,0,0,0,-1.6557,-1.6559,-1.6536,-1.6524,-1.6445,-1.6403,-1.6392,-1.6339,-1.6319,-1.6317,-1.6271,-1.6232,-1.6155,-1.6148,-1.6136,-1.6142,-1.6066,-1.6068,-1.607,-1.6134,-1.6143,-1.615,0,0,0,0,0,0,-1.6629,-1.6548,-1.6522,-1.6502,-1.646,-1.639,-1.6384,-1.635,-1.6312,-1.6307,-1.6242,-1.6227,-1.6205,-1.6171,-1.6165,-1.6136,-1.6105,-1.6105,-1.6158,-1.6166,-1.6172,-1.618,-1.6108,0,0,0,0,0,-1.6643,-1.6617,-1.6547,-1.6536,-1.6517,-1.6455,-1.6435,-1.6398,-1.6351,-1.6333,-1.6285,-1.6241,-1.6206,-1.6184,-1.6149,-1.6133,-1.6116,-1.6131,-1.6138,-1.6144,-1.6144,-1.6133,-1.6139,-1.6078,-1.6078,-1.6078,0,0,-1.667,-1.6623,-1.661,-1.6549,-1.6513,-1.6486,-1.644,-1.6414,-1.6394,-1.6328,-1.6298,-1.6263,-1.6209,-1.6187,-1.6175,-1.6158,-1.6157,-1.6147,-1.6152,-1.6148,-1.6136,-1.6142,-1.6147,-1.608,-1.608,-1.6079,0,0,-1.6706,-1.6669,-1.6655,-1.662,-1.6566,-1.6525,-1.6522,-1.6457,-1.6431,-1.6401,-1.6352,-1.6327,-1.6269,-1.6232,-1.6207,-1.6233,-1.6195,-1.6223,-1.6256,-1.6247,-1.6252,-1.6256,-1.6264,-1.6268,-1.6224,-1.6224,-1.6224,0,-1.6746,-1.6705,-1.6652,-1.6629,-1.6604,-1.6546,-1.6532,-1.65,-1.6437,-1.642,-1.6403,-1.633,-1.6289,-1.6258,-1.6265,-1.6247,-1.624,-1.6229,-1.6256,-1.6259,-1.6262,-1.6269,-1.6272,-1.6228,-1.6227,-1.6227,-1.6226,0,-1.6757,-1.673,-1.6726,-1.6668,-1.6642,-1.6624,-1.6567,-1.6548,-1.6514,-1.6475,-1.6446,-1.6396,-1.635,-1.634,-1.6306,-1.6305,-1.6296,-1.6268,-1.6236,-1.6272,-1.6278,-1.628,-1.6233,-1.6231,-1.623,-1.6229,0,0,-1.6832,-1.6747,-1.6746,-1.672,-1.6657,-1.6635,-1.6614,-1.6571,-1.6555,-1.6514,-1.6495,-1.6449,-1.6423,-1.6394,-1.6356,-1.6348,-1.6372,-1.6321,-1.6319,-1.6331,-1.6366,-1.6386,-1.6391,-1.6348,-1.6348,-1.6348,-1.6371,0,-1.6857,-1.6818,-1.677,-1.6747,-1.6721,-1.6667,-1.6649,-1.6609,-1.6573,-1.6545,-1.6505,-1.6473,-1.6443,-1.6425,-1.6415,-1.6371,-1.6377,-1.6369,-1.6327,-1.6327,-1.6341,-1.6393,-1.6414,-1.6437,-1.6373,-1.6373,-1.6373,0,-1.688,-1.6844,-1.6819,-1.676,-1.6747,-1.6732,-1.6689,-1.6664,-1.6617,-1.6592,-1.6561,-1.6521,-1.6496,-1.647,-1.6435,-1.643,-1.6411,-1.6387,-1.6387,-1.6379,-1.635,-1.6385,-1.6443,-1.6446,-1.6376,-1.6376,-1.6376,0,-1.6936,-1.6881,-1.6859,-1.6838,-1.6769,-1.676,-1.6731,-1.6683,-1.6661,-1.6623,-1.6608,-1.6568,-1.6545,-1.6515,-1.6465,-1.6451,-1.6435,-1.6405,-1.6412,-1.6413,-1.6409,-1.6409,-1.6463,-1.64,-1.64,-1.64,-1.64,0,-1.6968,-1.6954,-1.6883,-1.6869,-1.6852,-1.6798,-1.6783,-1.6749,-1.6708,-1.6686,-1.6638,-1.6618,-1.6555,-1.6528,-1.6489,-1.6465,-1.6456,-1.6434,-1.6423,-1.6437,-1.644,-1.6421,-1.6418,-1.6401,-1.6401,-1.6401,-1.64,0,-1.7026,-1.6978,-1.695,-1.6888,-1.6873,-1.6863,-1.681,-1.6794,-1.6757,-1.673,-1.6721,-1.6661,-1.6627,-1.6576,-1.6526,-1.65,-1.6482,-1.6466,-1.6498,-1.6491,-1.6501,-1.6501,-1.6543,-1.6545,-1.6484,-1.6484,-1.6485,0,-1.7048,-1.7036,-1.6974,-1.6957,-1.693,-1.6903,-1.688,-1.6827,-1.6805,-1.6753,-1.6744,-1.6707,-1.6674,-1.6622,-1.6574,-1.6536,-1.6517,-1.6535,-1.651,-1.6525,-1.6515,-1.6516,-1.6514,-1.6539,-1.654,-1.6541,-1.6542,0,-1.7092,-1.707,-1.704,-1.7002,-1.6977,-1.6944,-1.6908,-1.6897,-1.6836,-1.6815,-1.678,-1.6755,-1.6705,-1.6668,-1.6624,-1.6593,-1.6557,-1.6551,-1.655,-1.6562,-1.6581,-1.657,-1.6511,-1.6549,-1.6548,-1.6548,-1.6547,-1.6547,-1.7132,-1.7119,-1.7074,-1.7043,-1.7011,-1.698,-1.6963,-1.6924,-1.6895,-1.6851,-1.6822,-1.6789,-1.6745,-1.6682,-1.6653,-1.6626,-1.6611,-1.661,-1.661,-1.661,-1.6615,-1.6588,-1.6618,-1.6618,-1.6618,-1.6618,-1.6617,0,-1.7173,-1.7142,-1.7114,-1.7067,-1.7042,-1.7013,-1.6973,-1.6954,-1.6926,-1.6888,-1.6858,-1.6819,-1.6784,-1.6734,-1.6695,-1.6684,-1.6666,-1.6675,-1.6674,-1.6667,-1.6631,-1.6635,-1.669,-1.669,-1.669,-1.669,-1.669,-1.669,-1.7191,-1.7168,-1.7141,-1.7103,-1.7072,-1.704,-1.702,-1.6991,-1.696,-1.6919,-1.6891,-1.686,-1.6817,-1.6775,-1.6742,-1.6728,-1.6715,-1.6729,-1.671,-1.6677,-1.667,-1.6664,-1.6667,-1.6727,-1.6727,-1.6748,-1.6749,-1.6749]},{"header":{"parameterUnit":"m.s-1","parameterCategory":1,"la1":30.2991,"la2":30.254,"lo1":-89.0895,"lo2":-89.0444,"dy":0.0017,"dx":0.0017,"nx":28,"ny":28,"refTime":"2024-03-30T09:00:00:Z","depth":0,"parameterNumber":3,"parameterNumberName":"V-component_of_WINDS"},"data":[0,0,0,0,0,0,0,0,0,0,0,0,0,0,0,0,0,0,0,0,0,0,0,0,0,0,0,0,0,0,0,0,0,0,0,0,0,0,0,0,0,0,0,0,0,0,0,0,0,0,0,0,0,0,0,0,0,0,3.3665,3.3665,0,3.3725,3.3726,3.3727,3.3824,3.3825,3.3827,3.3829,3.3888,3.3888,3.3888,0,0,0,0,0,0,0,0,0,0,0,0,0,3.3631,3.3631,3.3665,3.3665,3.3666,3.3725,3.3726,3.3727,3.3823,3.3825,3.3828,3.383,3.3888,3.3888,3.3888,0,0,0,0,0,0,0,0,0,0,0,0,0,3.3664,3.3631,3.3664,3.3721,3.3727,3.3725,3.3726,3.3727,3.3823,3.3826,3.3828,3.3831,3.3888,3.3888,3.3888,3.3834,0,0,3.3888,3.3888,0,0,0,0,0,0,0,0,3.3662,3.3665,3.3712,3.3717,3.3724,3.377,3.3736,3.3763,3.3822,3.3786,3.3829,3.3832,3.3846,3.385,3.3855,3.3837,3.384,3.3888,3.3888,3.3888,3.3888,0,0,0,0,0,0,0,3.3659,3.3663,3.3689,3.3713,3.372,3.3744,3.3751,3.3742,3.3801,3.379,3.3797,3.3803,3.385,3.3855,3.3858,3.3841,3.3888,3.3888,3.3888,3.3888,3.3784,3.3781,0,0,0,0,0,0,3.3649,3.366,3.3687,3.369,3.3699,3.3742,3.3751,3.3752,3.3801,3.3811,3.3801,3.3807,3.3854,3.3858,3.386,3.3802,3.3888,3.3888,3.3887,3.3786,3.3783,3.378,0,0,0,0,0,0,3.3648,3.365,3.3684,3.3677,3.3684,3.374,3.3741,3.3752,3.3757,3.3809,3.382,3.3795,3.3856,3.386,3.3841,3.3805,3.3887,3.3887,3.3789,3.3785,3.3782,3.3685,0,0,0,0,0,0,3.3647,3.3649,3.363,3.3676,3.3684,3.3664,3.3739,3.3751,3.3757,3.3767,3.3807,3.3816,3.3859,3.384,3.3841,3.3807,3.3887,3.3793,3.3788,3.3783,3.3691,3.3678,3.3666,0,0,0,0,0,3.3645,3.3599,3.3628,3.3631,3.366,3.3662,3.3666,3.3716,3.3754,3.3735,3.3769,3.3815,3.3809,3.3838,3.3839,3.3804,3.3795,3.3789,3.3783,3.3697,3.368,3.3666,0,0,0,0,0,0,3.3545,3.3606,3.3639,3.3607,3.3629,3.3678,3.3655,3.3697,3.3708,3.3716,3.3777,3.3785,3.3758,3.3779,3.381,3.3756,3.381,3.3803,3.3743,3.3728,3.3716,3.3712,3.3887,0,0,0,0,0,3.352,3.3517,3.357,3.3536,3.3545,3.3598,3.3601,3.3638,3.3662,3.3672,3.3704,3.3725,3.3729,3.373,3.3735,3.3695,3.3706,3.3672,3.3659,3.3648,3.3643,3.3625,3.3611,3.376,3.376,3.376,0,0,3.3467,3.3499,3.3493,3.3517,3.3538,3.3533,3.3605,3.3596,3.3594,3.367,3.3655,3.3679,3.3707,3.3677,3.3666,3.3694,3.3604,3.3641,3.3632,3.3632,3.3617,3.3603,3.359,3.3756,3.3757,3.3757,0,0,3.3368,3.3392,3.3368,3.3388,3.342,3.3455,3.3449,3.3493,3.3513,3.3498,3.3556,3.3553,3.3557,3.3576,3.3585,3.3495,3.3539,3.3495,3.343,3.3412,3.34,3.339,3.3359,3.3347,3.3489,3.3489,3.3489,0,3.3298,3.3294,3.3349,3.3338,3.3347,3.3418,3.3394,3.341,3.3441,3.3446,3.3477,3.3485,3.3509,3.3486,3.3464,3.3469,3.3464,3.3491,3.3397,3.3387,3.3379,3.335,3.3338,3.3483,3.3484,3.3484,3.3485,0,3.3206,3.3203,3.3179,3.321,3.3216,3.3198,3.3251,3.3251,3.3288,3.332,3.3305,3.3336,3.3351,3.3347,3.3382,3.3329,3.3346,3.3386,3.3441,3.3358,3.3333,3.3322,3.3476,3.3477,3.3479,3.348,0,0,3.3046,3.3109,3.31,3.3115,3.3156,3.3154,3.314,3.3155,3.3154,3.3173,3.3164,3.3166,3.3204,3.3215,3.3253,3.3237,3.3165,3.3279,3.3281,3.3258,3.311,3.3081,3.3067,3.3195,3.3193,3.3191,3.3109,0,3.2957,3.2937,3.2987,3.2955,3.2953,3.302,3.3008,3.3032,3.3062,3.3064,3.3097,3.3099,3.3148,3.3156,3.3143,3.3177,3.3137,3.3183,3.3186,3.3186,3.3178,3.3054,3.3022,3.2942,3.3099,3.3097,3.3096,0,3.285,3.2866,3.2833,3.2878,3.2879,3.2867,3.2886,3.2887,3.2916,3.2939,3.2952,3.2997,3.2986,3.3039,3.3026,3.3056,3.306,3.3077,3.3076,3.3079,3.3136,3.3054,3.2918,3.2907,3.308,3.3081,3.3083,0,3.2738,3.2751,3.2734,3.2745,3.2796,3.2786,3.2807,3.2839,3.2845,3.2861,3.2866,3.288,3.2888,3.2898,3.2946,3.2979,3.2927,3.2983,3.2947,3.2945,3.2933,3.2933,3.2797,3.2933,3.2934,3.2934,3.2934,0,3.2634,3.2611,3.2685,3.2674,3.2652,3.271,3.2686,3.2714,3.2741,3.2737,3.2796,3.2791,3.2854,3.2856,3.2893,3.2877,3.2879,3.2898,3.2909,3.2894,3.2892,3.2898,3.2905,3.2931,3.2931,3.2932,3.2933,0,3.2505,3.2554,3.254,3.259,3.2602,3.2583,3.2626,3.2619,3.2653,3.2648,3.265,3.2703,3.2709,3.2757,3.2773,3.2798,3.2769,3.2789,3.2759,3.2766,3.2728,3.2731,3.2591,3.2577,3.2721,3.2719,3.2718,0,3.2436,3.2421,3.247,3.2473,3.2491,3.2493,3.2501,3.2558,3.2563,3.2595,3.2584,3.2595,3.2606,3.2612,3.2652,3.2665,3.2687,3.2637,3.2689,3.2675,3.2688,3.2689,3.2688,3.2626,3.2624,3.2623,3.2621,0,3.2309,3.2334,3.2343,3.2361,3.2368,3.2384,3.2404,3.2402,3.2465,3.2468,3.2476,3.2484,3.2502,3.2512,3.2532,3.2553,3.2598,3.2605,3.2597,3.2582,3.2567,3.2576,3.273,3.2608,3.2609,3.261,3.2611,3.2611,3.221,3.22,3.2234,3.2242,3.2263,3.2281,3.2277,3.2311,3.2319,3.2338,3.2371,3.2373,3.2404,3.2436,3.2453,3.2456,3.2482,3.2471,3.2468,3.2465,3.2458,3.2565,3.246,3.246,3.2461,3.2461,3.2461,0,3.2087,3.2112,3.2119,3.2146,3.2153,3.2195,3.222,3.2222,3.2224,3.2249,3.226,3.2269,3.2279,3.232,3.2335,3.233,3.2351,3.2332,3.2334,3.2338,3.2433,3.2438,3.2315,3.2315,3.2315,3.2315,3.2315,3.2315,3.2024,3.2011,3.204,3.2038,3.2063,3.2067,3.2078,3.2095,3.2115,3.2123,3.2132,3.2159,3.2191,3.2209,3.2221,3.2233,3.2236,3.2211,3.2229,3.2317,3.2331,3.2345,3.235,3.221,3.221,3.2135,3.2134,3.2134]}]]